Regional Weather Roundup
Issued by NWS Cleveland, OH

Home | Current Version | Previous Version | Text Only | Print | Product List | Glossary On
Versions: 1 2 3 4 5 6 7 8 9 10 11 12 13 14 15 16 17 18 19 20 21 22 23 24 25 26 27 28 29 30 31 32 33 34 35 36 37 38 39 40 41 42 43 44 45 46 47 48 49 50
000
ASUS41 KCLE 251012
RWRCLE
OHIO REGIONAL WEATHER ROUNDUP
NATIONAL WEATHER SERVICE WILMINGTON, OH
500 AM EST SAT NOV 25 2017

NOTE: "FAIR" INDICATES FEW OR NO CLOUDS BELOW 12,000 FEET WITH NO
SIGNIFICANT WEATHER AND/OR OBSTRUCTIONS TO VISIBILITY.

OHZ001>008-015>018-024>027-034-035-043-044-251100-
   NORTHWEST OHIO

CITY           SKY/WX    TMP DP  RH WIND       PRES   REMARKS
DEFIANCE       FAIR      46  35  65 SW6       29.65R
FINDLAY        FAIR      49  33  54 SW14      29.64R
TOLEDO EXPRESS FAIR      48  37  65 W13       29.61R
TOLEDO EXEC    FAIR      47  35  63 SW12      29.62R
LIMA           FAIR      47  34  60 SW14      29.67R
$$

OHZ009>014-019>023-028>033-038-089-251100-
   NORTHEAST OHIO

CITY           SKY/WX    TMP DP  RH WIND       PRES   REMARKS
CLE-HOPKINS    CLOUDY    53  30  41 SW16      29.64S
CLE-LAKEFRONT  MOCLDY    53  29  39 S18G28    29.61R
CUY CO. ARPT   NOT AVBL
LORAIN-ELYRIA  MOCLDY    50  28  42 W16G28    29.63S
ASHTABULA      MOCLDY    49  26  41 S12       29.62S
AKRON-CANTON   CLOUDY    48  26  42 SW12      29.66S
WOOSTER        FAIR      49  28  44 SW15      29.66S
MANSFIELD      FAIR      49  29  46 SW18G30   29.65S
YOUNGSTOWN     CLOUDY    50  26  39 SW12      29.64F
$$

OHZ042-051>053-060>062-070>072-077>081-251100-
  SOUTHWEST OHIO

CITY           SKY/WX    TMP DP  RH WIND       PRES   REMARKS
CINC-COVINGTON MOCLDY    49  31  49 SW9       29.75S
CINC-LUNKEN    FAIR      50  31  48 SW8       29.77R
HAMILTON       FAIR      50  31  48 SW8       29.76R
DAYTON         MOCLDY    47  32  56 SW15      29.72R
WRIGHT-PAT AFB MOCLDY    47  27  45 SW10      29.72R
DAYTON GENERAL FAIR      50  28  42 SW10      29.73R
WILMINGTON     FAIR      48  32  53 SW14      29.73S
$$

OHZ036-037-039>041-045>050-054>059-063>069-073>076-082>088-251100-
  CENTRAL AND SOUTHEAST OHIO

CITY           SKY/WX    TMP DP  RH WIND       PRES   REMARKS
COLUMBUS       CLOUDY    50  31  48 SW13      29.72S
OSU AIRPORT    FAIR      49  31  49 SW10      29.71S
BOLTON FIELD   FAIR      48  32  53 SW12G18   29.72R
RICKENBACK AFB MOCLDY    48  32  53 SW8G16    29.73R
NEWARK         FAIR      52  29  41 SW14G24   29.71R
MARION         FAIR      46  31  55 S7        29.68S
LANCASTER      FAIR      51  32  48 SW13G25   29.72R
ZANESVILLE     FAIR      49  29  46 SW9       29.72R
NEW PHILLY     FAIR      50  27  40 S10       29.71R
$$




USA.gov is the U.S. government's official web portal to all federal, state and local government web resources and services.